TimeMDT,TemperatureF,Dew PointF,Humidity,Sea Level PressureIn,VisibilityMPH,Wind Direction,Wind SpeedMPH,Gust SpeedMPH,PrecipitationIn,Events,Conditions,WindDirDegrees,DateUTC
12:18 AM,42.8,37.4,81,29.92,8.0,Calm,Calm,-,N/A,,Partly Cloudy,0,2013-10-03 06:18:00
12:28 AM,42.8,37.4,81,29.92,10.0,Calm,Calm,-,N/A,,Partly Cloudy,0,2013-10-03 06:28:00
12:53 AM,42.8,37.4,81,29.93,9.0,NNW,2.3,-,N/A,,Partly Cloudy,340,2013-10-03 06:53:00
12:58 AM,42.8,37.2,81,29.95,9.0,NW,2.3,-,N/A,,Partly Cloudy,310,2013-10-03 06:58:00
1:08 AM,42.8,37.4,81,29.93,5.0,WNW,8.1,-,N/A,,Haze,300,2013-10-03 07:08:00
1:18 AM,44.6,35.6,71,29.93,10.0,West,9.2,-,N/A,,Mostly Cloudy,280,2013-10-03 07:18:00
1:43 AM,42.8,32.0,66,29.93,10.0,WNW,9.2,-,N/A,,Scattered Clouds,300,2013-10-03 07:43:00
1:58 AM,43.2,31.6,64,29.94,10.0,NW,15.0,-,N/A,,Partly Cloudy,310,2013-10-03 07:58:00
2:58 AM,41.2,30.7,66,29.96,10.0,WNW,12.7,-,N/A,,Clear,290,2013-10-03 08:58:00
3:13 AM,41.0,32.0,70,29.96,10.0,WNW,12.7,-,N/A,,Mostly Cloudy,290,2013-10-03 09:13:00
3:18 AM,41.0,32.0,70,29.95,10.0,WNW,15.0,-,N/A,,Mostly Cloudy,290,2013-10-03 09:18:00
3:23 AM,41.0,32.0,70,29.96,10.0,West,11.5,-,N/A,,Mostly Cloudy,280,2013-10-03 09:23:00
3:28 AM,41.0,32.0,70,29.96,10.0,West,15.0,-,N/A,,Overcast,280,2013-10-03 09:28:00
3:43 AM,41.0,32.0,70,29.96,10.0,WNW,10.4,-,N/A,,Scattered Clouds,290,2013-10-03 09:43:00
3:58 AM,41.9,31.3,66,29.96,10.0,WNW,15.0,-,N/A,,Mostly Cloudy,290,2013-10-03 09:58:00
4:58 AM,41.9,30.9,65,29.97,10.0,WNW,16.1,-,N/A,,Mostly Cloudy,300,2013-10-03 10:58:00
5:08 AM,42.8,32.0,66,29.97,10.0,WNW,16.1,-,N/A,,Mostly Cloudy,300,2013-10-03 11:08:00
5:38 AM,41.0,32.0,70,29.97,10.0,WNW,20.7,26.5,N/A,,Scattered Clouds,300,2013-10-03 11:38:00
5:43 AM,42.8,33.8,70,29.98,10.0,WNW,20.7,-,N/A,,Light Drizzle,300,2013-10-03 11:43:00
5:58 AM,42.1,32.9,70,29.98,10.0,WNW,16.1,-,0.00,,Mostly Cloudy,300,2013-10-03 11:58:00
6:58 AM,40.6,31.3,69,29.99,10.0,WNW,16.1,-,N/A,,Mostly Cloudy,300,2013-10-03 12:58:00
7:33 AM,41.0,28.4,61,29.99,10.0,WNW,16.1,-,N/A,,Scattered Clouds,290,2013-10-03 13:33:00
7:58 AM,40.1,29.1,65,30.01,10.0,WNW,13.8,-,N/A,,Mostly Cloudy,290,2013-10-03 13:58:00
8:33 AM,41.0,30.2,65,30.00,10.0,WNW,15.0,-,N/A,,Mostly Cloudy,290,2013-10-03 14:33:00
8:58 AM,41.5,29.7,63,30.01,10.0,WNW,16.1,27.6,N/A,,Mostly Cloudy,290,2013-10-03 14:58:00
9:48 AM,44.6,30.2,57,30.01,10.0,WNW,26.5,34.5,N/A,,Mostly Cloudy,300,2013-10-03 15:48:00
9:58 AM,44.8,29.7,55,30.03,10.0,WNW,25.3,35.7,0.00,,Light Drizzle,300,2013-10-03 15:58:00
10:13 AM,44.6,32.0,61,30.01,10.0,WNW,31.1,38.0,N/A,,Overcast,300,2013-10-03 16:13:00
10:58 AM,46.4,30.4,54,30.01,10.0,WNW,33.4,39.1,0.00,,Overcast,300,2013-10-03 16:58:00
11:58 AM,47.1,30.4,52,30.03,10.0,WNW,31.1,38.0,N/A,,Overcast,300,2013-10-03 17:58:00
12:58 PM,49.5,30.4,48,30.01,10.0,NW,33.4,41.4,N/A,,Overcast,310,2013-10-03 18:58:00
1:58 PM,52.7,29.8,42,30.01,10.0,NW,36.8,43.7,N/A,,Overcast,310,2013-10-03 19:58:00
2:58 PM,54.9,30.0,39,30.00,10.0,NW,38.0,49.5,0.02,,Scattered Clouds,310,2013-10-03 20:58:00
3:59 PM,55.9,29.1,36,30.00,7.0,NW,36.8,48.3,N/A,,Widespread Dust,310,2013-10-03 21:59:00
4:58 PM,55.8,29.5,37,30.01,10.0,WNW,34.5,44.9,N/A,,Scattered Clouds,300,2013-10-03 22:58:00
5:58 PM,55.0,29.3,37,30.04,10.0,NW,31.1,44.9,0.01,,Clear,310,2013-10-03 23:58:00
6:58 PM,52.2,25.5,36,30.07,10.0,NW,20.7,-,N/A,,Clear,310,2013-10-04 00:58:00
7:58 PM,48.7,25.5,40,30.11,10.0,NW,15.0,-,N/A,,Clear,310,2013-10-04 01:58:00
8:58 PM,47.5,25.2,42,30.14,10.0,WNW,13.8,-,N/A,,Clear,290,2013-10-04 02:58:00
10:58 PM,43.9,30.0,58,30.20,10.0,WNW,17.3,-,N/A,,Clear,300,2013-10-04 04:58:00
11:58 PM,42.8,30.9,63,30.21,10.0,NW,24.2,-,N/A,,Clear,320,2013-10-04 05:58:00